EW9366 Weather Reports


Display with metric or nautical units.
time (UTC)temp
F
wind
direction
speed
MPH
gust
MPH
rain 1hr
in
rain 24hr
in
rain mn
in
humidity
%
barometer
mb
20260905142822 94 255 0.0 3.0 0.00 0.00 0.00 55 1015.8
20260905142322 94 157 0.0 1.0 0.00 0.00 0.00 58 1015.7
20260905141822 94 133 0.0 1.0 0.00 0.00 0.00 56 1015.7
20260905141320 94 138 0.0 1.0 0.00 0.00 0.00 56 1015.8
20260905141241 93 163 0.0 0.0 0.00 0.00 0.00 58 1015.8
20260905140246 92 166 0.0 0.0 0.00 0.00 0.00 59 1015.9
20260905135750 92 189 0.0 1.0 0.00 0.00 0.00 60 1015.9
20260905135231 91 189 0.0 1.0 0.00 0.00 0.00 62 1015.9
20260905135154 90 134 0.0 1.0 0.00 0.00 0.00 62 1015.8
20260905134149 90 134 0.0 1.0 0.00 0.00 0.00 63 1015.7
20260905134134 89 18 0.0 0.0 0.00 0.00 0.00 64 1015.8
20260905133132 89 18 0.0 0.0 0.00 0.00 0.00 66 1015.9
20260905132635 88 18 0.0 1.0 0.00 0.00 0.00 67 1015.8
20260905132119 87 17 0.0 1.0 0.00 0.00 0.00 69 1015.7
20260905131618 86 17 0.0 1.0 0.00 0.00 0.00 71 1015.6
20260905131119 85 17 0.0 0.0 0.00 0.00 0.00 73 1015.6
20260905130603 84 17 0.0 0.0 0.00 0.00 0.00 75 1015.6
20260905130027 81 17 0.0 1.0 0.00 0.00 0.00 78 1015.6
20260905125044 80 17 0.0 1.0 0.00 0.00 0.00 79 1015.6
20260905124524 80 17 0.0 0.0 0.00 0.00 0.00 82 1015.6
20260905123958 78 17 0.0 0.0 0.00 0.00 0.00 84 1015.6
20260905123455 77 17 0.0 0.0 0.00 0.00 0.00 86 1015.5
20260905122941 76 17 0.0 0.0 0.00 0.00 0.00 88 1015.5
20260905122442 74 17 0.0 0.0 0.00 0.00 0.00 89 1015.4
20260905121915 73 17 0.0 0.0 0.00 0.00 0.00 89 1015.4
20260905121413 73 17 0.0 0.0 0.00 0.00 0.00 88 1015.4
20260905120911 72 17 0.0 0.0 0.00 0.00 0.00 88 1015.4
20260905120408 72 17 0.0 0.0 0.00 0.00 0.00 88 1015.1
20260905115902 72 17 0.0 0.0 0.00 0.00 0.00 88 1015.2
20260905115843 72 17 0.0 0.0 0.00 0.00 0.00 88 1015.1
20260905114901 72 17 0.0 0.0 0.00 0.00 0.00 88 1015.0
20260905114842 72 17 0.0 0.0 0.00 0.00 0.00 87 1015.0
20260905113856 73 17 0.0 0.0 0.00 0.00 0.00 87 1015.0
20260905113846 73 17 0.0 0.0 0.00 0.00 0.00 87 1015.0
20260905112832 73 17 0.0 0.0 0.00 0.00 0.00 87 1015.0
20260905112307 73 17 0.0 0.0 0.00 0.00 0.00 87 1015.0
20260905112239 73 17 0.0 0.0 0.00 0.00 0.00 87 1015.0
20260905111243 73 17 0.0 0.0 0.00 0.00 0.00 86 1015.0
20260905110742 73 17 0.0 0.0 0.00 0.00 0.00 87 1015.0
20260905110240 73 17 0.0 0.0 0.00 0.00 0.00 87 1015.0
20260905105716 73 17 0.0 0.0 0.00 0.00 0.00 87 1014.9
20260905105157 73 17 0.0 0.0 0.00 0.00 0.00 87 1014.8
20260905105130 73 17 0.0 0.0 0.00 0.00 0.00 86 1014.8
20260905104621 73 17 0.0 0.0 0.00 0.00 0.00 86 1014.7
20260905103638 73 17 0.0 0.0 0.00 0.00 0.00 85 1014.8
20260905103141 73 17 0.0 0.0 0.00 0.00 0.00 85 1014.7
20260905102616 73 17 0.0 0.0 0.00 0.00 0.00 84 1014.7
20260905102056 74 17 0.0 0.0 0.00 0.00 0.00 84 1014.6
20260905102042 74 17 0.0 0.0 0.00 0.00 0.00 85 1014.6
20260905101024 74 17 0.0 0.0 0.00 0.00 0.00 85 1014.6
20260905100524 74 17 0.0 0.0 0.00 0.00 0.00 85 1014.6
20260905100025 74 17 0.0 0.0 0.00 0.00 0.00 85 1014.6
20260905095503 74 17 0.0 0.0 0.00 0.00 0.00 84 1014.6
20260905095426 74 17 0.0 0.0 0.00 0.00 0.00 84 1014.5
20260905094438 74 17 0.0 0.0 0.00 0.00 0.00 84 1014.3
20260905093941 74 17 0.0 0.0 0.00 0.00 0.00 84 1014.6
20260905093907 74 17 0.0 0.0 0.00 0.00 0.00 84 1014.6
20260905092853 74 17 0.0 0.0 0.00 0.00 0.00 83 1014.5
20260905092355 74 17 0.0 0.0 0.00 0.00 0.00 83 1014.5
20260905091831 74 17 0.0 0.0 0.00 0.00 0.00 82 1014.6
20260905091316 74 17 0.0 0.0 0.00 0.00 0.00 82 1014.6
20260905090751 75 17 0.0 0.0 0.00 0.00 0.00 81 1014.6
20260905090228 75 17 0.0 0.0 0.00 0.00 0.00 81 1014.5
20260905085705 75 17 0.0 0.0 0.00 0.00 0.00 81 1014.5
20260905085202 75 17 0.0 0.0 0.00 0.00 0.00 81 1014.5
20260905085157 75 17 0.0 0.0 0.00 0.00 0.00 80 1014.5
20260905084159 75 17 0.0 0.0 0.00 0.00 0.00 81 1014.3
20260905083659 76 17 0.0 0.0 0.00 0.00 0.00 80 1014.3
20260905083619 76 17 0.0 0.0 0.00 0.00 0.00 80 1014.3
20260905082636 76 17 0.0 0.0 0.00 0.00 0.00 80 1014.3
20260905082133 76 17 0.0 0.0 0.00 0.00 0.00 79 1014.3
20260905081635 76 17 0.0 0.0 0.00 0.00 0.00 79 1014.3
20260905081113 76 17 0.0 0.0 0.00 0.00 0.00 79 1014.3
20260905080546 76 17 0.0 0.0 0.00 0.00 0.00 78 1014.3
20260905080025 76 17 0.0 0.0 0.00 0.00 0.00 78 1014.3
20260905075503 77 17 0.0 0.0 0.00 0.00 0.00 78 1014.3
20260905074935 77 17 0.0 0.0 0.00 0.00 0.00 77 1014.2
20260905074410 77 17 0.0 0.0 0.00 0.00 0.00 77 1014.3
20260905073912 77 17 0.0 0.0 0.00 0.00 0.00 77 1014.5
20260905073345 77 17 0.0 0.0 0.00 0.00 0.00 76 1014.5
20260905073332 78 17 0.0 0.0 0.00 0.00 0.00 76 1014.5
20260905072823 78 17 0.0 0.0 0.00 0.00 0.00 76 1014.6
20260905071815 78 17 0.0 0.0 0.00 0.00 0.00 75 1014.6
20260905071243 78 17 0.0 0.0 0.00 0.00 0.00 75 1014.6
20260905070742 78 17 0.0 0.0 0.00 0.00 0.00 75 1014.6
20260905070238 78 17 0.0 0.0 0.00 0.00 0.00 75 1014.6
20260905065736 79 17 0.0 0.0 0.00 0.00 0.00 75 1014.7
20260905065716 79 17 0.0 0.0 0.00 0.00 0.00 74 1014.8
20260905065218 79 17 0.0 0.0 0.00 0.00 0.00 74 1014.8
20260905064228 79 17 0.0 0.0 0.00 0.00 0.00 74 1014.8
20260905063726 80 17 0.0 0.0 0.00 0.00 0.00 74 1014.7
20260905063202 80 17 0.0 0.0 0.00 0.00 0.00 74 1014.7
20260905062645 80 17 0.0 0.0 0.00 0.00 0.00 73 1014.7
20260905062144 80 17 0.0 0.0 0.00 0.00 0.00 72 1014.8
20260905061645 80 17 0.0 0.0 0.00 0.00 0.00 72 1014.8
20260905061143 81 17 0.0 0.0 0.00 0.00 0.00 71 1014.9
20260905060643 81 17 0.0 0.0 0.00 0.00 0.00 71 1014.8
20260905060113 81 17 0.0 0.0 0.00 0.00 0.00 71 1014.9
20260905055608 81 17 0.0 0.0 0.00 0.00 0.00 71 1014.8
20260905055105 81 17 0.0 1.0 0.00 0.00 0.00 71 1014.9
20260905054554 81 17 0.0 1.0 0.00 0.00 0.00 71 1014.7
20260905054541 80 17 0.0 1.0 0.00 0.00 0.00 71 1014.7
20260905053552 80 16 0.0 1.0 0.00 0.00 0.00 72 1014.7
20260905053055 80 16 0.0 0.0 0.00 0.00 0.00 71 1014.7
20260905052536 80 16 0.0 0.0 0.00 0.00 0.00 71 1014.7
20260905052034 80 16 0.0 0.0 0.00 0.00 0.00 71 1014.8
20260905051534 80 16 0.0 0.0 0.00 0.00 0.00 71 1014.7
20260905051033 80 16 0.0 0.0 0.00 0.00 0.00 70 1014.7
20260905051020 80 16 0.0 0.0 0.00 0.00 0.00 70 1014.7
20260905050025 80 16 0.0 0.0 0.00 0.00 0.00 70 1014.7
20260905045523 80 16 0.0 0.0 0.00 0.00 0.00 70 1014.8
20260905044955 80 16 0.0 0.0 0.00 0.00 0.00 70 1014.7
20260905044427 80 16 0.0 0.0 0.00 0.00 0.00 70 1014.7
20260905043921 80 16 0.0 0.0 0.00 0.00 0.00 69 1014.7
20260905043418 80 16 0.0 0.0 0.00 0.00 0.00 69 1014.8
20260905042915 80 16 0.0 0.0 0.00 0.00 0.00 69 1014.8
20260905042414 80 16 0.0 0.0 0.00 0.00 0.00 69 1014.8
20260905041846 81 16 0.0 0.0 0.00 0.00 0.00 68 1014.7
20260905041343 81 16 0.0 0.0 0.00 0.00 0.00 68 1014.7
20260905041254 81 16 0.0 0.0 0.00 0.00 0.00 68 1014.7
20260905040314 81 16 0.0 0.0 0.00 0.00 0.00 68 1014.7
20260905035746 81 16 0.0 0.0 0.00 0.00 0.00 67 1014.6
20260905035728 82 16 0.0 0.0 0.00 0.00 0.00 66 1014.7
20260905034730 82 16 0.0 0.0 0.00 0.00 0.00 66 1014.6
20260905034233 82 16 0.0 0.0 0.00 0.00 0.00 66 1014.7
20260905034146 82 16 0.0 0.0 0.00 0.00 0.00 65 1014.7
20260905033201 82 16 0.0 0.0 0.00 0.00 0.00 65 1014.7
20260905032633 83 16 0.0 0.0 0.00 0.00 0.00 65 1014.6
20260905032129 83 16 0.0 0.0 0.00 0.00 0.00 64 1014.6
20260905031628 83 16 0.0 0.0 0.00 0.00 0.00 64 1014.6
20260905031121 83 16 0.0 0.0 0.00 0.00 0.00 64 1014.6
20260905030620 83 16 0.0 0.0 0.00 0.00 0.00 63 1014.6
20260905030051 84 16 0.0 0.0 0.00 0.00 0.00 63 1014.5
20260905030036 84 16 0.0 1.0 0.00 0.00 0.00 62 1014.5
20260905025542 84 16 0.0 1.0 0.00 0.00 0.00 62 1014.3
20260905024546 84 16 0.0 1.0 0.00 0.00 0.00 61 1014.2
20260905024017 85 16 0.0 1.0 0.00 0.00 0.00 60 1014.1
20260905023516 85 16 0.0 1.0 0.00 0.00 0.00 60 1013.9
20260905023428 85 20 0.0 1.0 0.00 0.00 0.00 60 1013.8
20260905022447 86 119 0.0 1.0 0.00 0.00 0.00 59 1013.7
20260905021929 86 141 0.0 1.0 0.00 0.00 0.00 59 1013.6
20260905021429 86 140 0.0 1.0 0.00 0.00 0.00 59 1013.5
20260905020926 86 140 0.0 1.0 0.00 0.00 0.00 59 1013.5
20260905020429 86 139 0.0 1.0 0.00 0.00 0.00 59 1013.4
20260905020406 85 141 0.0 1.0 0.00 0.00 0.00 59 1013.3
20260905015643 85 141 0.0 1.0 0.00 0.00 0.00 59 1013.3
20260905014850 85 141 0.0 0.0 0.00 0.00 0.00 58 1013.1
20260905014811 85 141 0.0 0.0 0.00 0.00 0.00 58 1013.1
20260905013801 86 141 0.0 0.0 0.00 0.00 0.00 57 1013.0
20260905013258 86 141 0.0 0.0 0.00 0.00 0.00 57 1012.9
20260905013216 86 141 0.0 0.0 0.00 0.00 0.00 56 1012.9
20260905012206 87 141 0.0 0.0 0.00 0.00 0.00 55 1012.9
20260905011640 87 141 0.0 0.0 0.00 0.00 0.00 54 1012.9
20260905011115 88 141 0.0 0.0 0.00 0.00 0.00 54 1012.8
20260905010548 88 141 0.0 0.0 0.00 0.00 0.00 52 1012.7
20260905010033 89 141 0.0 0.0 0.00 0.00 0.00 51 1012.8
20260905005532 90 141 0.0 0.0 0.00 0.00 0.00 50 1012.7
20260905005027 91 141 0.0 0.0 0.00 0.00 0.00 49 1012.7
20260905004525 92 141 0.0 0.0 0.00 0.00 0.00 49 1012.6
20260905004021 93 141 0.0 0.0 0.00 0.00 0.00 46 1012.5
20260905004003 94 141 0.0 0.0 0.00 0.00 0.00 45 1012.5
20260905003444 96 141 0.0 1.0 0.00 0.00 0.00 44 1012.5
20260905002451 97 141 0.0 1.0 0.00 0.00 0.00 42 1012.5
20260905001925 98 141 0.0 1.0 0.00 0.00 0.00 42 1012.4
20260905001424 98 141 0.0 1.0 0.00 0.00 0.00 41 1012.5
20260905000912 99 143 0.0 1.0 0.00 0.00 0.00 41 1012.5
20260905000413 99 144 0.0 1.0 0.00 0.00 0.00 41 1012.4
20260905000337 99 129 0.0 1.0 0.00 0.00 0.00 42 1012.4
20260904235331 99 129 0.0 2.0 0.00 0.00 0.00 42 1012.5
20260904234758 99 160 0.0 3.0 0.00 0.00 0.00 41 1012.5
20260904234722 99 158 1.0 3.0 0.00 0.00 0.00 41 1012.5
20260904233712 100 132 0.0 2.0 0.00 0.00 0.00 41 1012.5
20260904233143 99 138 0.0 2.0 0.00 0.00 0.00 41 1012.4
20260904232643 99 138 0.0 2.0 0.00 0.00 0.00 41 1012.4
20260904232119 99 127 0.0 2.0 0.00 0.00 0.00 41 1012.5
20260904231617 99 199 0.0 3.0 0.00 0.00 0.00 42 1012.5
20260904231041 99 87 0.0 3.0 0.00 0.00 0.00 42 1012.5
20260904230515 99 156 1.0 2.0 0.00 0.00 0.00 42 1012.5
20260904230500 99 142 1.0 5.0 0.00 0.00 0.00 42 1012.5
20260904225456 98 129 1.0 5.0 0.00 0.00 0.00 43 1012.5
20260904225432 98 103 1.0 3.0 0.00 0.00 0.00 43 1012.5
20260904224455 98 199 1.0 4.0 0.00 0.00 0.00 42 1012.6
20260904223957 98 139 1.0 4.0 0.00 0.00 0.00 43 1012.6
20260904223429 97 129 0.0 3.0 0.00 0.00 0.00 44 1012.7
20260904223417 97 139 0.0 2.0 0.00 0.00 0.00 44 1012.7
20260904222403 97 139 0.0 2.0 0.00 0.00 0.00 43 1012.6
20260904221839 98 134 1.0 3.0 0.00 0.00 0.00 42 1012.7
20260904221310 99 142 1.0 4.0 0.00 0.00 0.00 41 1012.7
20260904220747 100 133 1.0 4.0 0.00 0.00 0.00 40 1012.8
20260904220235 100 128 1.0 5.0 0.00 0.00 0.00 40 1012.7
20260904215734 100 202 1.0 5.0 0.00 0.00 0.00 40 1012.8
20260904215233 100 203 0.0 2.0 0.00 0.00 0.00 40 1012.7
20260904214727 100 201 1.0 4.0 0.00 0.00 0.00 40 1012.9
20260904214226 100 103 1.0 4.0 0.00 0.00 0.00 39 1012.9
20260904213658 100 134 1.0 4.0 0.00 0.00 0.00 39 1012.9
20260904213134 100 27 1.0 4.0 0.00 0.00 0.00 39 1013.0
20260904212608 100 154 1.0 4.0 0.00 0.00 0.00 40 1013.0
20260904212044 101 132 1.0 5.0 0.00 0.00 0.00 39 1013.1
20260904211543 101 96 1.0 5.0 0.00 0.00 0.00 40 1013.1
20260904211027 101 88 1.0 3.0 0.00 0.00 0.00 40 1013.1
20260904211015 101 141 1.0 5.0 0.00 0.00 0.00 39 1013.2
20260904210006 101 230 1.0 4.0 0.00 0.00 0.00 39 1013.1
20260904205446 101 210 2.0 5.0 0.00 0.00 0.00 39 1013.2
20260904204944 101 153 1.0 5.0 0.00 0.00 0.00 40 1013.2
20260904204926 100 150 0.0 3.0 0.00 0.00 0.00 40 1013.4
20260904203945 100 134 0.0 5.0 0.00 0.00 0.00 40 1013.5
20260904203444 101 165 1.0 5.0 0.00 0.00 0.00 40 1013.6
20260904202944 100 187 1.0 3.0 0.00 0.00 0.00 40 1013.7
20260904202434 99 184 2.0 3.0 0.00 0.00 0.00 43 1013.7
20260904201934 98 155 1.0 3.0 0.00 0.00 0.00 42 1013.7
20260904201416 98 53 0.0 5.0 0.00 0.00 0.00 43 1013.7
20260904200916 98 64 1.0 5.0 0.00 0.00 0.00 42 1013.9
20260904200401 98 102 2.0 6.0 0.00 0.00 0.00 44 1014.0
20260904195904 97 119 2.0 6.0 0.00 0.00 0.00 46 1014.1
20260904195352 97 14 2.0 6.0 0.00 0.00 0.00 44 1014.1
20260904195331 98 47 2.0 7.0 0.00 0.00 0.00 42 1014.3
20260904194345 99 333 2.0 7.0 0.00 0.00 0.00 42 1014.3
20260904193841 100 9 1.0 4.0 0.00 0.00 0.00 41 1014.2
20260904193339 100 357 1.0 3.0 0.00 0.00 0.00 43 1014.3
20260904192841 100 209 1.0 5.0 0.00 0.00 0.00 41 1014.3
20260904192338 101 202 1.0 5.0 0.00 0.00 0.00 39 1014.3
20260904192322 102 139 1.0 3.0 0.00 0.00 0.00 40 1014.6
20260904191324 101 115 0.0 3.0 0.00 0.00 0.00 42 1014.6
20260904190825 100 115 1.0 3.0 0.00 0.00 0.00 44 1014.8
20260904190321 100 264 1.0 4.0 0.00 0.00 0.00 44 1014.8
20260904185818 101 262 1.0 4.0 0.00 0.00 0.00 41 1014.8
20260904185320 101 146 1.0 4.0 0.00 0.00 0.00 42 1014.9
20260904184802 101 199 1.0 4.0 0.00 0.00 0.00 42 1015.0
20260904184753 101 24 1.0 4.0 0.00 0.00 0.00 43 1015.1
20260904183745 101 184 2.0 5.0 0.00 0.00 0.00 42 1015.0
20260904183244 100 196 1.0 5.0 0.00 0.00 0.00 44 1015.0
20260904182745 101 54 1.0 4.0 0.00 0.00 0.00 42 1015.1
20260904182244 101 114 1.0 4.0 0.00 0.00 0.00 44 1015.2
20260904181739 101 244 1.0 5.0 0.00 0.00 0.00 43 1015.3
20260904181223 101 219 1.0 5.0 0.00 0.00 0.00 44 1015.2
20260904180722 100 146 2.0 5.0 0.00 0.00 0.00 46 1015.2
20260904180224 100 203 1.0 5.0 0.00 0.00 0.00 43 1015.3
20260904175717 100 137 1.0 5.0 0.00 0.00 0.00 45 1015.4
20260904175657 100 211 1.0 5.0 0.00 0.00 0.00 45 1015.4
20260904174714 100 178 1.0 5.0 0.00 0.00 0.00 46 1015.6
20260904174217 100 132 1.0 3.0 0.00 0.00 0.00 47 1015.6
20260904173701 100 179 2.0 4.0 0.00 0.00 0.00 45 1015.7
20260904173651 100 192 2.0 6.0 0.00 0.00 0.00 45 1015.8
20260904172649 100 132 1.0 6.0 0.00 0.00 0.00 46 1015.8
20260904172147 99 127 1.0 5.0 0.00 0.00 0.00 47 1015.9
20260904171626 99 288 1.0 5.0 0.00 0.00 0.00 49 1016.0
20260904171101 98 202 2.0 4.0 0.00 0.00 0.00 48 1016.1
20260904170551 98 195 2.0 4.0 0.00 0.00 0.00 48 1016.1
20260904170044 97 138 2.0 6.0 0.00 0.00 0.00 49 1016.2
20260904165528 97 203 2.0 6.0 0.00 0.00 0.00 50 1016.1
20260904165025 98 154 1.0 3.0 0.00 0.00 0.00 48 1016.2
20260904164526 97 217 1.0 4.0 0.00 0.00 0.00 50 1016.2
20260904164021 97 160 1.0 5.0 0.00 0.00 0.00 50 1016.3
20260904163512 96 103 2.0 5.0 0.00 0.00 0.00 52 1016.3
20260904163013 96 143 1.0 5.0 0.00 0.00 0.00 53 1016.4
20260904162945 96 146 1.0 4.0 0.00 0.00 0.00 53 1016.4
20260904161959 96 133 1.0 4.0 0.00 0.00 0.00 52 1016.3
20260904161459 96 196 1.0 3.0 0.00 0.00 0.00 52 1016.4
20260904160933 96 231 2.0 5.0 0.00 0.00 0.00 54 1016.3
20260904160413 96 132 2.0 5.0 0.00 0.00 0.00 52 1016.3
20260904160336 96 139 1.0 5.0 0.00 0.00 0.00 53 1016.4
20260904155333 96 257 1.0 4.0 0.00 0.00 0.00 53 1016.3
20260904155323 96 204 1.0 3.0 0.00 0.00 0.00 54 1016.4
20260904154312 96 169 1.0 3.0 0.00 0.00 0.00 55 1016.4
20260904153813 95 132 1.0 3.0 0.00 0.00 0.00 56 1016.4
20260904153315 95 195 1.0 4.0 0.00 0.00 0.00 57 1016.5
20260904152808 95 29 1.0 4.0 0.00 0.00 0.00 58 1016.5
20260904152309 95 141 0.0 3.0 0.00 0.00 0.00 58 1016.5
20260904151809 95 276 0.0 2.0 0.00 0.00 0.00 58 1016.3
20260904151306 94 212 0.0 2.0 0.00 0.00 0.00 59 1016.4
20260904150752 94 195 1.0 3.0 0.00 0.00 0.00 59 1016.4
20260904150251 93 186 1.0 3.0 0.00 0.00 0.00 60 1016.5
20260904145735 93 159 0.0 2.0 0.00 0.00 0.00 61 1016.5
20260904145232 93 152 0.0 2.0 0.00 0.00 0.00 59 1016.5
20260904144735 93 199 0.0 3.0 0.00 0.00 0.00 60 1016.4
20260904144205 92 204 0.0 3.0 0.00 0.00 0.00 61 1016.4
20260904144153 91 182 0.0 3.0 0.00 0.00 0.00 63 1016.4